Location: Munkebjergskolens Observatorium
(55.3864°N, 10.3987°E)
Time: 09:36:15
(UTC+01:00)

DELTA 1 DEB - Visible Passes

Search period start: 03 December 2023 00:00
Search period end: 13 December 2023 00:00
Orbit: 784 x 826 km, 98.9° (Epoch: 30 November)

Date Brightness Start Highest point End Pass type
(mag) Time Alt. Az. Time Alt. Az. Time Alt. Az.
03 Dec ? 06:26:31 10° NNE 06:31:27 35° E 06:36:22 10° SSE visible
03 Dec ? 17:53:54 10° SSE 17:59:09 77° WSW 18:04:30 10° NNW visible
03 Dec ? 19:36:46 10° WSW 19:39:51 15° W 19:42:57 10° NW visible
04 Dec ? 06:01:45 10° NE 06:06:05 24° E 06:10:23 10° SE visible
04 Dec ? 07:41:00 10° NNE 07:46:22 73° WNW 07:51:45 10° SSW visible
04 Dec ? 17:28:47 10° SSE 17:34:01 73° ENE 17:39:21 10° NNW visible
04 Dec ? 19:10:11 10° SW 19:14:21 23° W 19:18:34 10° NW visible
05 Dec ? 05:37:19 10° NE 05:40:35 16° E 05:43:51 10° ESE visible
05 Dec ? 07:15:50 10° NNE 07:21:15 77° ESE 07:26:39 10° SSW visible
05 Dec ? 17:03:55 10° SE 17:08:58 50° ENE 17:14:07 10° N visible
05 Dec ? 18:44:10 10° SSW 18:48:57 35° W 18:53:48 10° NNW visible
06 Dec ? 05:14:25 10° ENE 05:15:00 10° E 05:15:36 10° E visible
06 Dec ? 06:50:46 10° NNE 06:56:03 52° E 07:01:18 10° S visible
06 Dec ? 16:39:16 10° ESE 16:44:00 35° ENE 16:48:49 10° N visible
06 Dec ? 18:18:30 10° S 18:23:38 52° W 18:28:51 10° NNW visible
07 Dec ? 06:25:49 10° NNE 06:30:44 35° E 06:35:38 10° SSE visible
07 Dec ? 17:53:08 10° SSE 17:58:24 78° WSW 18:03:47 10° NNW visible
07 Dec ? 19:35:55 10° WSW 19:39:05 16° W 19:42:18 10° NW visible
08 Dec ? 06:01:02 10° NE 06:05:19 24° E 06:09:36 10° SE visible
08 Dec ? 07:40:15 10° NNE 07:45:38 75° WNW 07:51:02 10° SSW visible
08 Dec ? 17:28:01 10° SSE 17:33:16 72° ENE 17:38:37 10° NNW visible
08 Dec ? 19:09:21 10° SW 19:13:35 24° W 19:17:52 10° NW visible
09 Dec ? 05:36:36 10° NE 05:39:50 16° E 05:43:02 10° ESE visible
09 Dec ? 07:15:05 10° NNE 07:20:30 76° ESE 07:25:54 10° SSW visible
09 Dec ? 17:03:08 10° SE 17:08:12 49° ENE 17:13:22 10° N visible
09 Dec ? 18:43:20 10° SSW 18:48:10 35° W 18:53:04 10° NNW visible
10 Dec ? 06:50:00 10° NNE 06:55:16 51° E 07:00:30 10° S visible
10 Dec ? 16:38:30 10° ESE 16:43:14 35° ENE 16:48:02 10° N visible
10 Dec ? 18:17:40 10° S 18:22:50 53° W 18:28:06 10° NNW visible
10 Dec ? 20:03:05 10° W 20:03:52 10° W 20:04:41 10° WNW visible
11 Dec ? 06:25:01 10° NNE 06:29:57 34° E 06:34:49 10° SSE visible
11 Dec ? 17:52:18 10° SSE 17:57:36 80° WSW 18:02:59 10° NNW visible
11 Dec ? 19:34:58 10° WSW 19:38:15 16° W 19:41:34 10° NW visible
12 Dec ? 06:00:14 10° NE 06:04:31 23° E 06:08:44 10° SE visible
12 Dec ? 07:39:25 10° NNE 07:44:50 76° WNW 07:50:13 10° SSW visible
12 Dec ? 17:27:11 10° SSE 17:32:27 71° ENE 17:37:48 10° NNW visible
12 Dec ? 19:08:27 10° SW 19:12:44 24° W 19:17:04 10° NW visible
